sat.trackr.live / text

‹ back to catalog

STARLINK-11539 [DTC]

NORAD 62987 · 2025-031G

PAYLOAD ACTIVE UNKNOWN

§ Identity

Operator
Country
US
Launch date
2025-02-11
Launch site
AFETR
Launch vehicle
Mass (kg)
RCS (m²)

Purposes: comms

External: N2YO · Heavens-Above · Gunter

§ Orbital elements

Epoch: 2026-05-24T14:42:17.684352Z

Period
91.67 min
Inclination
43.0002°
Eccentricity
0.0001009
Mean motion
15.70848094 rev/d
Perigee alt
355.8 km
Apogee alt
357.2 km
Semi-major
6,734.6 km
B*
1.1202e-3
RAAN
263.7707°
Arg perigee
237.9837°
Mean anomaly
122.0933°
Rev number
7,468

§ Raw data

STARLINK-11539 [DTC]1 62987U 25031G   26144.61270468  .00145883  00000+0  11202-2 0  99902 62987  43.0002 263.7707 0001009 237.9837 122.0933 15.70848094 74685

JSON: /api/v1/satellites/62987 · /tle

For live sub-satellite position, see the globe view (requires WebGL).

§ Visibility from observer

Set your observer location to see the next 7 days of passes ≥ 10°. The values pass through the URL so the page stays shareable.

No JS? Fill the form by hand. The geolocation button needs JavaScript.